When you browse on this site, cookies collect data to enhance your experience and personalize the content and advertising you see.
Visit our Privacy Policy to learn more. By continuing to use the site, you agree to this use of cookies and data.
  • In Hungary
  • List of Countries
  • For 7 days
  • Water Temperature
  • Weather Map
  • News
  • Weather Widgets
  • user-avatar
    Login

    Hourly Weather Novye Omelniki

    Today, 14 October, Monday

    Time Temperature Precipitation Wind Pressure Humidity
    00:00 +7°C° 0 mm 5 mps 729 mmHg 91%
    01:00 +6°C° 0 mm 4 mps 728 mmHg 91%
    02:00 +6°C° 0 mm 4 mps 729 mmHg 91%
    03:00 +6°C° 0 mm 5 mps 729 mmHg 90%
    04:00 +5°C° 0 mm 5 mps 729 mmHg 90%
    05:00 +5°C° 0 mm 5 mps 729 mmHg 91%
    06:00 +5°C° 0 mm 5 mps 729 mmHg 92%
    07:00 +5°C° 0 mm 5 mps 729 mmHg 93%
    08:00 +4°C° 0 mm 6 mps 729 mmHg 90%
    09:00 +5°C° 0 mm 6 mps 730 mmHg 88%
    10:00 +5°C° 0 mm 7 mps 730 mmHg 85%
    11:00 +6°C° 0.1 mm 7 mps 731 mmHg 81%
    12:00 +6°C° 0.1 mm 7 mps 731 mmHg 78%
    13:00 +8°C° 0.1 mm 7 mps 731 mmHg 74%
    14:00 +8°C° 0.1 mm 7 mps 732 mmHg 74%
    15:00 +8°C° 0.1 mm 7 mps 732 mmHg 73%
    16:00 +8°C° 0.1 mm 7 mps 733 mmHg 73%
    17:00 +7°C° 0 mm 6 mps 733 mmHg 76%
    18:00 +7°C° 0 mm 6 mps 733 mmHg 80%
    19:00 +7°C° 0 mm 6 mps 733 mmHg 83%
    20:00 +5°C° 0.1 mm 6 mps 733 mmHg 84%
    21:00 +5°C° 0.1 mm 6 mps 734 mmHg 85%
    22:00 +5°C° 0.1 mm 6 mps 734 mmHg 85%
    23:00 +5°C° 0 mm 5 mps 734 mmHg 87%

    Tomorrow, 15 October, Tuesday

    Time Temperature Precipitation Wind Pressure Humidity
    00:00 +5°C° 0 mm 5 mps 734 mmHg 89%
    01:00 +5°C° 0 mm 4 mps 734 mmHg 90%
    02:00 +4°C° 0 mm 4 mps 734 mmHg 91%
    03:00 +4°C° 0 mm 4 mps 734 mmHg 92%
    04:00 +4°C° 0 mm 4 mps 734 mmHg 93%
    05:00 +4°C° 0.3 mm 4 mps 733 mmHg 93%
    06:00 +4°C° 0.3 mm 4 mps 733 mmHg 93%
    07:00 +4°C° 0.3 mm 4 mps 732 mmHg 93%
    08:00 +5°C° 1.4 mm 5 mps 731 mmHg 94%
    09:00 +4°C° 1.4 mm 6 mps 730 mmHg 94%
    10:00 +5°C° 1.4 mm 7 mps 729 mmHg 95%
    11:00 +6°C° 0.9 mm 7 mps 728 mmHg 95%
    12:00 +7°C° 0.9 mm 8 mps 728 mmHg 94%
    13:00 +10°C° 0.9 mm 8 mps 727 mmHg 94%
    14:00 +10°C° 0.3 mm 8 mps 727 mmHg 93%
    15:00 +10°C° 0.3 mm 7 mps 727 mmHg 91%
    16:00 +10°C° 0.3 mm 7 mps 727 mmHg 90%
    17:00 +10°C° 0.7 mm 6 mps 727 mmHg 91%
    18:00 +9°C° 0.7 mm 5 mps 728 mmHg 92%
    19:00 +10°C° 0.7 mm 4 mps 728 mmHg 94%
    20:00 +8°C° 0.3 mm 5 mps 728 mmHg 93%
    21:00 +7°C° 0.3 mm 5 mps 729 mmHg 92%
    22:00 +7°C° 0.3 mm 6 mps 729 mmHg 90%
    23:00 +5°C° 0 mm 6 mps 730 mmHg 89%

    Day after tomorrow, 16 October, Wednesday

    Time Temperature Precipitation Wind Pressure Humidity
    00:00 +6°C° 0 mm 5 mps 731 mmHg 88%
    01:00 +5°C° 0 mm 5 mps 732 mmHg 87%
    02:00 +3°C° 0 mm 5 mps 732 mmHg 87%
    03:00 +3°C° 0 mm 5 mps 733 mmHg 86%
    04:00 +2°C° 0 mm 5 mps 734 mmHg 86%
    05:00 +1°C° 0 mm 5 mps 734 mmHg 87%
    06:00 +1°C° 0 mm 5 mps 735 mmHg 88%
    07:00 +1°C° 0 mm 5 mps 735 mmHg 89%
    08:00 +1°C° 0 mm 5 mps 736 mmHg 84%
    09:00 +1°C° 0 mm 5 mps 736 mmHg 80%
    10:00 +2°C° 0 mm 6 mps 737 mmHg 75%
    11:00 +2°C° 0 mm 6 mps 737 mmHg 73%
    12:00 +2°C° 0 mm 6 mps 738 mmHg 71%
    13:00 +2°C° 0 mm 6 mps 738 mmHg 69%
    14:00 +2°C° 0 mm 6 mps 739 mmHg 70%
    15:00 +2°C° 0 mm 6 mps 739 mmHg 70%
    16:00 +2°C° 0 mm 6 mps 740 mmHg 71%
    17:00 +1°C° 0 mm 5 mps 740 mmHg 72%
    18:00 +1°C° 0 mm 5 mps 740 mmHg 73%
    19:00 +1°C° 0 mm 4 mps 741 mmHg 74%
    20:00 +1°C° 0 mm 4 mps 741 mmHg 75%
    21:00 0°C° 0 mm 4 mps 742 mmHg 75%
    22:00 0°C° 0 mm 4 mps 742 mmHg 75%
    23:00 +1°C° 0 mm 3 mps 742 mmHg 77%

    17 October, Thursday

    Time Temperature Precipitation Wind Pressure Humidity
    00:00 +1°C° 0 mm 2 mps 742 mmHg 79%
    01:00 +1°C° 0 mm 2 mps 742 mmHg 81%
    02:00 +1°C° 0 mm 1 mps 743 mmHg 83%
    03:00 +1°C° 0 mm 1 mps 743 mmHg 85%
    04:00 0°C° 0 mm 1 mps 743 mmHg 87%
    05:00 0°C° 0 mm 1 mps 743 mmHg 87%
    06:00 0°C° 0 mm 1 mps 744 mmHg 87%
    07:00 -1°C° 0 mm 0 mps 744 mmHg 87%
    08:00 +1°C° 0 mm 1 mps 744 mmHg 81%
    09:00 +1°C° 0 mm 2 mps 744 mmHg 76%
    10:00 +2°C° 0 mm 2 mps 744 mmHg 71%
    11:00 +2°C° 0 mm 3 mps 743 mmHg 70%
    12:00 +3°C° 0 mm 4 mps 743 mmHg 69%
    13:00 +3°C° 0 mm 4 mps 743 mmHg 68%
    14:00 +3°C° 0.1 mm 4 mps 743 mmHg 71%
    15:00 +3°C° 0.1 mm 4 mps 742 mmHg 75%
    16:00 +1°C° 0.1 mm 4 mps 742 mmHg 79%
    17:00 +1°C° 0 mm 5 mps 741 mmHg 78%
    18:00 +2°C° 0 mm 5 mps 741 mmHg 76%
    19:00 +2°C° 0 mm 6 mps 740 mmHg 74%
    20:00 +2°C° 0 mm 6 mps 739 mmHg 73%
    21:00 +2°C° 0 mm 7 mps 739 mmHg 71%
    22:00 +1°C° 0 mm 8 mps 738 mmHg 69%
    23:00 +1°C° 0 mm 8 mps 738 mmHg 68%

    18 October, Friday

    Time Temperature Precipitation Wind Pressure Humidity
    00:00 +1°C° 0 mm 8 mps 737 mmHg 68%
    01:00 +1°C° 0 mm 9 mps 736 mmHg 67%
    02:00 +1°C° 0 mm 9 mps 736 mmHg 67%
    03:00 +1°C° 0 mm 9 mps 735 mmHg 66%
    04:00 +1°C° 0 mm 9 mps 734 mmHg 66%
    05:00 +1°C° 0 mm 9 mps 734 mmHg 67%
    06:00 +1°C° 0 mm 9 mps 733 mmHg 67%
    07:00 +1°C° 0 mm 8 mps 732 mmHg 68%
    08:00 +1°C° 0.2 mm 8 mps 732 mmHg 71%
    09:00 +1°C° 0.2 mm 8 mps 732 mmHg 73%
    10:00 +2°C° 0.2 mm 8 mps 731 mmHg 76%
    11:00 +3°C° 0.3 mm 7 mps 731 mmHg 81%
    12:00 +3°C° 0.3 mm 7 mps 731 mmHg 85%
    13:00 +3°C° 0.3 mm 7 mps 731 mmHg 90%
    14:00 +2°C° 0.8 mm 6 mps 731 mmHg 86%
    15:00 +1°C° 0.8 mm 6 mps 731 mmHg 83%
    16:00 +1°C° 0.8 mm 6 mps 731 mmHg 79%
    17:00 -1°C° 0 mm 6 mps 732 mmHg 77%
    18:00 -1°C° 0 mm 6 mps 732 mmHg 75%
    19:00 -2°C° 0 mm 6 mps 733 mmHg 72%
    20:00 -2°C° 0 mm 6 mps 733 mmHg 74%
    21:00 -3°C° 0 mm 7 mps 733 mmHg 75%
    22:00 -3°C° 0 mm 7 mps 734 mmHg 77%
    23:00 -3°C° 0 mm 7 mps 734 mmHg 78%

    19 October, Saturday

    Time Temperature Precipitation Wind Pressure Humidity
    00:00 -4°C° 0 mm 7 mps 734 mmHg 78%
    01:00 -4°C° 0 mm 7 mps 734 mmHg 79%
    02:00 -4°C° 0 mm 7 mps 735 mmHg 79%
    03:00 -6°C° 0 mm 7 mps 735 mmHg 78%
    04:00 -6°C° 0 mm 8 mps 735 mmHg 78%
    05:00 -6°C° 0 mm 8 mps 736 mmHg 77%
    06:00 -6°C° 0 mm 7 mps 737 mmHg 77%
    07:00 -6°C° 0 mm 7 mps 737 mmHg 77%
    08:00 -6°C° 0 mm 7 mps 738 mmHg 75%
    09:00 -4°C° 0 mm 7 mps 738 mmHg 73%
    10:00 -4°C° 0 mm 7 mps 739 mmHg 71%
    11:00 -3°C° 0 mm 7 mps 739 mmHg 67%
    12:00 -3°C° 0 mm 7 mps 740 mmHg 64%
    13:00 -2°C° 0 mm 7 mps 740 mmHg 61%
    14:00 -2°C° 0 mm 6 mps 740 mmHg 60%
    15:00 -2°C° 0 mm 6 mps 741 mmHg 59%
    16:00 -1°C° 0 mm 5 mps 741 mmHg 58%
    17:00 -2°C° 0 mm 5 mps 741 mmHg 62%
    18:00 -3°C° 0 mm 4 mps 742 mmHg 65%
    19:00 -4°C° 0 mm 3 mps 742 mmHg 68%
    20:00 -4°C° 0 mm 3 mps 742 mmHg 68%
    21:00 -4°C° 0 mm 3 mps 743 mmHg 68%
    22:00 -4°C° 0 mm 2 mps 743 mmHg 68%
    23:00 -4°C° 0 mm 2 mps 743 mmHg 68%
    Show more